Terminal Aerodrome Forecast
Issued by NWS Lubbock, TX

Home | Current Version | Previous Version | Text Only | Print | Product List | Glossary On
Versions: 1 2 3 4 5 6 7 8 9 10 11 12
625
FTUS44 KLUB 121120
TAFLBB
TAF
KLBB 121120Z 1212/1312 36007KT P6SM SKC
     FM121800 11011KT P6SM SKC=

USA.gov is the U.S. government's official web portal to all federal, state and local government web resources and services.